Location: Auttagershofen
(48.1940°N, 10.0237°E)
Time: 06:55:14
(UTC+00:00)

Cosmos 2341 Rocket - Pass Details

Date: 18 January 2026
Orbit: 967 x 1004 km, 82.9° (Epoch: 17 February)

Event Time Altitude Azimuth Distance (km) Brightness Sun altitude
Rises 06:20:15 0° 204° (SSW) 3,717 7.0 -7.3°
Reaches altitude 10° 06:22:51 10° 209° (SSW) 2,772 6.3 -6.9°
Maximum altitude 06:29:03 52° 285° (WNW) 1,238 4.2 -5.9°
Drops below altitude 10° 06:35:17 10° 1° (N) 2,783 6.2 -5.0°
Sets 06:37:55 0° 7° (N) 3,733 6.8 -4.6°
